When you browse on this site, cookies collect data to enhance your experience and personalize the content and advertising you see.
Visit our Privacy Policy to learn more. By continuing to use the site, you agree to this use of cookies and data.
  • In Hungary
  • List of Countries
  • For 7 days
  • Water Temperature
  • Satellite Maps
  • Weather Map
  • News
  • Weather Widgets
  • user-avatar
    Login

    Hourly Weather Trydent i Bolzano

    Today, 11 December, Tuesday

    Time Temperature Precipitation Wind Pressure Humidity
    00:00 +3°C° 0.4 mm 2 mps 737 mmHg 78%
    01:00 +3°C° 0.4 mm 2 mps 737 mmHg 79%
    02:00 +3°C° 0.2 mm 2 mps 737 mmHg 79%
    03:00 +3°C° 0.2 mm 2 mps 738 mmHg 79%
    04:00 +3°C° 0.2 mm 2 mps 738 mmHg 80%
    05:00 +2°C° 0.1 mm 2 mps 738 mmHg 80%
    06:00 +2°C° 0.1 mm 2 mps 738 mmHg 80%
    07:00 +1°C° 0.1 mm 2 mps 738 mmHg 81%
    08:00 +2°C° 0 mm 2 mps 738 mmHg 76%
    09:00 +3°C° 0 mm 2 mps 739 mmHg 71%
    10:00 +3°C° 0 mm 2 mps 739 mmHg 66%
    11:00 +4°C° 0 mm 2 mps 739 mmHg 62%
    12:00 +4°C° 0 mm 2 mps 739 mmHg 57%
    13:00 +5°C° 0 mm 2 mps 738 mmHg 53%
    14:00 +4°C° 0 mm 2 mps 738 mmHg 57%
    15:00 +3°C° 0 mm 2 mps 739 mmHg 61%
    16:00 +3°C° 0 mm 1 mps 739 mmHg 65%
    17:00 +1°C° 0 mm 2 mps 739 mmHg 67%
    18:00 -1°C° 0 mm 2 mps 739 mmHg 69%
    19:00 -2°C° 0 mm 2 mps 740 mmHg 72%
    20:00 -3°C° 0 mm 2 mps 740 mmHg 71%
    21:00 -3°C° 0 mm 2 mps 740 mmHg 70%
    22:00 -3°C° 0 mm 2 mps 740 mmHg 70%
    23:00 -3°C° 0 mm 2 mps 740 mmHg 69%

    Tomorrow, 12 December, Wednesday

    Time Temperature Precipitation Wind Pressure Humidity
    00:00 -3°C° 0 mm 2 mps 740 mmHg 69%
    01:00 -3°C° 0 mm 2 mps 740 mmHg 68%
    02:00 -4°C° 0 mm 2 mps 740 mmHg 68%
    03:00 -4°C° 0 mm 2 mps 740 mmHg 68%
    04:00 -4°C° 0 mm 2 mps 740 mmHg 69%
    05:00 -4°C° 0 mm 2 mps 740 mmHg 69%
    06:00 -4°C° 0 mm 2 mps 740 mmHg 69%
    07:00 -4°C° 0 mm 2 mps 740 mmHg 69%
    08:00 -3°C° 0 mm 2 mps 740 mmHg 66%
    09:00 +1°C° 0 mm 1 mps 740 mmHg 63%
    10:00 +2°C° 0 mm 1 mps 739 mmHg 60%
    11:00 +4°C° 0 mm 1 mps 739 mmHg 56%
    12:00 +5°C° 0 mm 1 mps 738 mmHg 52%
    13:00 +6°C° 0 mm 1 mps 738 mmHg 48%
    14:00 +5°C° 0 mm 1 mps 738 mmHg 53%
    15:00 +3°C° 0 mm 0 mps 737 mmHg 58%
    16:00 +1°C° 0 mm 0 mps 737 mmHg 63%
    17:00 +1°C° 0 mm 1 mps 737 mmHg 66%
    18:00 0°C° 0 mm 1 mps 738 mmHg 68%
    19:00 -1°C° 0 mm 1 mps 738 mmHg 70%
    20:00 -1°C° 0 mm 1 mps 738 mmHg 70%
    21:00 -1°C° 0 mm 1 mps 738 mmHg 70%
    22:00 -2°C° 0 mm 1 mps 738 mmHg 70%
    23:00 -2°C° 0 mm 1 mps 737 mmHg 70%

    Day after tomorrow, 13 December, Thursday

    Time Temperature Precipitation Wind Pressure Humidity
    00:00 -2°C° 0 mm 1 mps 737 mmHg 70%
    01:00 -2°C° 0 mm 1 mps 737 mmHg 69%
    02:00 -2°C° 0 mm 1 mps 737 mmHg 70%
    03:00 -2°C° 0 mm 1 mps 737 mmHg 70%
    04:00 -2°C° 0 mm 1 mps 736 mmHg 70%
    05:00 -2°C° 0 mm 1 mps 736 mmHg 70%
    06:00 -2°C° 0 mm 1 mps 736 mmHg 70%
    07:00 -2°C° 0 mm 1 mps 736 mmHg 70%
    08:00 -1°C° 0 mm 1 mps 736 mmHg 69%
    09:00 0°C° 0 mm 1 mps 735 mmHg 67%
    10:00 +2°C° 0 mm 1 mps 735 mmHg 65%
    11:00 +3°C° 0 mm 1 mps 735 mmHg 63%
    12:00 +4°C° 0 mm 1 mps 734 mmHg 61%
    13:00 +5°C° 0 mm 1 mps 734 mmHg 59%
    14:00 +4°C° 0 mm 1 mps 734 mmHg 64%
    15:00 +3°C° 0 mm 1 mps 734 mmHg 68%
    16:00 +2°C° 0 mm 1 mps 734 mmHg 73%
    17:00 +1°C° 0 mm 1 mps 735 mmHg 75%
    18:00 0°C° 0 mm 1 mps 735 mmHg 77%
    19:00 -1°C° 0 mm 1 mps 736 mmHg 79%
    20:00 -1°C° 0 mm 1 mps 736 mmHg 79%
    21:00 -1°C° 0 mm 1 mps 736 mmHg 79%
    22:00 -1°C° 0 mm 1 mps 736 mmHg 79%
    23:00 -1°C° 0 mm 1 mps 736 mmHg 79%

    14 December, Friday

    Time Temperature Precipitation Wind Pressure Humidity
    00:00 -2°C° 0 mm 1 mps 736 mmHg 78%
    01:00 -2°C° 0 mm 1 mps 736 mmHg 78%
    02:00 -2°C° 0 mm 1 mps 736 mmHg 77%
    03:00 -2°C° 0 mm 1 mps 736 mmHg 76%
    04:00 -2°C° 0 mm 1 mps 736 mmHg 75%
    05:00 -2°C° 0 mm 1 mps 736 mmHg 74%
    06:00 -2°C° 0 mm 1 mps 737 mmHg 72%
    07:00 -2°C° 0 mm 1 mps 737 mmHg 71%
    08:00 -1°C° 0 mm 1 mps 737 mmHg 67%
    09:00 +1°C° 0 mm 1 mps 737 mmHg 63%
    10:00 +2°C° 0 mm 1 mps 737 mmHg 59%
    11:00 +4°C° 0 mm 1 mps 737 mmHg 55%
    12:00 +4°C° 0 mm 0 mps 737 mmHg 50%
    13:00 +5°C° 0 mm 0 mps 736 mmHg 46%
    14:00 +4°C° 0 mm 0 mps 737 mmHg 51%
    15:00 +2°C° 0 mm 0 mps 737 mmHg 55%
    16:00 +1°C° 0 mm 0 mps 737 mmHg 60%
    17:00 0°C° 0 mm 0 mps 738 mmHg 59%
    18:00 0°C° 0 mm 1 mps 738 mmHg 59%
    19:00 0°C° 0 mm 1 mps 739 mmHg 59%
    20:00 0°C° 0 mm 1 mps 739 mmHg 56%
    21:00 -1°C° 0 mm 1 mps 740 mmHg 53%
    22:00 -1°C° 0 mm 1 mps 740 mmHg 50%
    23:00 -1°C° 0 mm 1 mps 740 mmHg 47%

    15 December, Saturday

    Time Temperature Precipitation Wind Pressure Humidity
    00:00 -1°C° 0 mm 1 mps 740 mmHg 45%
    01:00 -1°C° 0 mm 1 mps 740 mmHg 43%
    02:00 -3°C° 0 mm 2 mps 740 mmHg 42%
    03:00 -3°C° 0 mm 2 mps 741 mmHg 41%
    04:00 -3°C° 0 mm 2 mps 741 mmHg 41%
    05:00 -3°C° 0 mm 2 mps 741 mmHg 42%
    06:00 -3°C° 0 mm 2 mps 741 mmHg 42%
    07:00 -3°C° 0 mm 2 mps 742 mmHg 43%
    08:00 -1°C° 0 mm 2 mps 742 mmHg 44%
    09:00 +2°C° 0 mm 1 mps 742 mmHg 44%
    10:00 +4°C° 0 mm 1 mps 742 mmHg 45%
    11:00 +5°C° 0 mm 1 mps 742 mmHg 44%
    12:00 +7°C° 0 mm 1 mps 741 mmHg 43%
    13:00 +8°C° 0 mm 1 mps 741 mmHg 41%
    14:00 +7°C° 0 mm 1 mps 741 mmHg 46%
    15:00 +6°C° 0 mm 1 mps 741 mmHg 51%
    16:00 +4°C° 0 mm 1 mps 741 mmHg 56%
    17:00 +3°C° 0 mm 1 mps 742 mmHg 55%
    18:00 +3°C° 0 mm 1 mps 742 mmHg 53%
    19:00 +2°C° 0 mm 1 mps 743 mmHg 52%
    20:00 +2°C° 0 mm 1 mps 743 mmHg 50%
    21:00 +2°C° 0 mm 1 mps 743 mmHg 48%
    22:00 +2°C° 0 mm 1 mps 743 mmHg 46%
    23:00 +2°C° 0 mm 1 mps 743 mmHg 46%

    16 December, Sunday

    Time Temperature Precipitation Wind Pressure Humidity
    00:00 +2°C° 0 mm 1 mps 742 mmHg 45%
    01:00 +3°C° 0 mm 1 mps 742 mmHg 44%
    02:00 +3°C° 0 mm 1 mps 742 mmHg 45%
    03:00 +3°C° 0 mm 1 mps 742 mmHg 45%
    04:00 +4°C° 0 mm 1 mps 741 mmHg 46%
    05:00 +4°C° 0 mm 1 mps 741 mmHg 47%
    06:00 +4°C° 0 mm 1 mps 741 mmHg 49%
    07:00 +5°C° 0 mm 1 mps 741 mmHg 50%
    08:00 +6°C° 0.1 mm 1 mps 741 mmHg 52%
    09:00 +7°C° 0.1 mm 1 mps 741 mmHg 53%
    10:00 +9°C° 0.1 mm 1 mps 741 mmHg 55%
    11:00 +9°C° 0.2 mm 1 mps 740 mmHg 55%
    12:00 +10°C° 0.2 mm 1 mps 740 mmHg 56%
    13:00 +11°C° 0.2 mm 1 mps 740 mmHg 56%
    14:00 +10°C° 0.1 mm 1 mps 739 mmHg 59%
    15:00 +9°C° 0.1 mm 1 mps 739 mmHg 62%
    16:00 +9°C° 0.1 mm 1 mps 739 mmHg 66%
    17:00 +8°C° 0 mm 1 mps 739 mmHg 67%
    18:00 +8°C° 0 mm 1 mps 739 mmHg 68%
    19:00 +7°C° 0 mm 1 mps 739 mmHg 69%
    20:00 +7°C° 0.1 mm 1 mps 739 mmHg 70%
    21:00 +7°C° 0.1 mm 1 mps 739 mmHg 71%
    22:00 +7°C° 0.1 mm 1 mps 739 mmHg 72%
    23:00 +7°C° 0.3 mm 1 mps 739 mmHg 74%
    Show more